EHI
0 0 0 0 0 0 0 0 0 0 0 0 0 1 2 2 1 0 0 0 0 0 0 0 0 0 0 0 0 0 0 0 0 0 0 0 0 0
0 0 0 0 0 0 0 0 0 0 0 0 0 0 1 1 0 0 0 0 0 0 0 0 0 0 0 0 0 0 0 0 0 0 0 0 0 0
0 0 0 0 0 0 0 0 0 0 0 0 0 0 0 0 0 0 0 0 0 0 0 0 0 0 0 0 0 0 0 0 0 0 0 0 0 0
0 0 0 0 0 0 0 0 0 0 0 0 0 0 0 0 0 0 0 0 0 0 0 0 0 0 0 0 0 0 0 0 0 0 0 0 0 0
0 0 0 0 0 0 0 0 0 0 0 0 0 0 0 0 0 1 1 1 0 0 0 0 0 0 0 0 0 0 0 0 0 0 0 0 0 0
0 0 0 0 0 0 0 0 0 0 0 0 0 0 0 0 0 1 1 1 0 0 0 0 0 0 0 0 0 0 0 0 0 0 0 0 0 0
0 0 0 0 0 0 0 0 0 0 0 0 0 0 0 0 0 1 1 0 0 0 0 0 0 0 0 0 0 0 0 0 0 0 0 0 0 0
0 0 0 0 0 0 0 0 0 0 0 0 0 0 0 0 0 0 0 0 0 0 0 0 0 0 0 0 0 0 0 0 0 0 0 0 0 0
0 0 0 0 0 0 0 0 0 0 0 0 0 0 0 0 0 0 0 0 0 0 0 0 0 0 0 0 0 0 0 0 0 0 0 0 0 0
0 0 0 0 0 0 0 0 0 0 0 0 0 0 0 0 0 0 0 0 0 0 0 0 0 0 0 0 0 0 0 0 0 0 0 0 0 0
0 0 0 0 0 0 0 0 0 0 0 0 0 0 0 0 0 0 0 0 0 0 0 0 0 0 0 0 0 0 0 0 0 0 0 0 0 0
0 0 0 0 0 0 0 0 0 0 0 0 0 0 0 0 0 0 0 0 0 0 0 0 0 0 0 0 0 0 0 0 0 0 0 0 0 0
0 0 0 0 0 0 0 0 0 0 0 0 0 0 0 0 0 0 0 0 0 0 0 0 0 0 0 0 0 0 0 0 0 0 0 0 0 0
0 0 0 0 0 0 0 0 0 0 0 0 0 0 0 0 0 0 0 0 0 0 0 0 0 0 0 0 0 0 0 0 0 0 0 0 0 0
0 0 0 0 0 0 0 0 0 0 0 0 0 0 0 0 0 0 0 0 0 0 0 0 0 0 0 0 0 0 0 0 0 0 0 0 0 0
0 0 0 0 0 0 0 0 0 0 0 0 0 0 0 0 0 0 0 0 0 0 0 0 0 0 0 0 0 0 0 0 0 0 0 0 0 0
0 0 0 0 0 0 0 0 0 0 0 0 0 0 0 0 0 0 0 0 0 0 0 0 0 0 0 0 0 0 0 0 0 0 0 0 0 0
0 0 0 0 0 0 0 0 0 0 0 0 0 0 0 0 0 0 0 0 0 0 0 0 0 0 0 0 0 0 0 0 0 0 0 0 0 0
0 0 0 0 0 0 0 0 0 0 0 0 0 0 0 0 0 0 0 0 0 0 0 0 0 0 0 0 0 0 0 0 0 0 0 0 0 0
0 0 0 0 0 0 0 0 0 0 0 0 0 0 0 0 0 0 0 0 0 0 0 0 0 0 0 0 0 0 0 0 0 0 0 0 0 0
0 0 0 0 0 0 0 0 0 0 0 0 0 0 0 0 0 0 0 0 0 0 0 0 0 0 0 0 0 0 0 0 0 0 0 0 0 0
0 0 0 0 0 0 0 0 0 0 0 0 0 0 0 0 0 0 0 0 0 0 0 0 0 0 0 0 0 0 0 0 0 0 0 0 0 0
0 0 0 0 0 0 0 0 0 0 0 0 0 0 0 0 0 0 0 0 0 0 0 0 0 0 0 0 0 0 0 0 0 0 0 0 0 0
Wind_Speed
11 11 10 9 9 8 8 8 9 10 8 5 4 2 2 3 3 5 6 8 11 14 15 16 16 17 18 19 19 19 19 18 18 18 18 18 19 19
9 10 10 10 8 8 9 9 9 9 9 6 4 4 4 4 3 4 4 5 8 10 12 13 14 15 16 16 17 17 17 17 17 17 17 16 16 17
11 12 12 12 10 9 9 9 9 9 10 8 5 5 5 5 4 3 3 4 4 8 10 11 11 13 14 15 15 16 16 16 16 16 16 16 15 15
13 12 13 11 12 11 10 11 10 9 10 10 7 5 5 5 4 3 3 3 3 6 8 9 9 10 11 13 13 14 14 14 15 14 15 15 15 15
13 13 13 13 12 11 11 11 10 10 10 10 9 5 4 4 4 3 3 2 3 5 7 8 8 8 9 10 11 11 12 12 12 13 13 13 13 13
13 13 13 13 13 13 11 12 11 11 10 10 9 7 5 4 4 3 3 3 3 4 4 6 8 8 8 8 9 10 10 10 10 11 11 11 11 11
13 13 13 12 11 10 10 10 11 10 10 10 10 8 7 5 5 3 3 4 3 3 5 5 6 6 6 8 8 9 9 9 9 9 10 10 10 10
13 13 13 13 14 14 15 15 13 13 12 10 10 9 8 7 5 4 4 4 4 4 4 4 4 4 4 4 7 8 9 9 9 9 9 9 9 9
13 12 12 12 12 14 15 18 18 18 16 13 13 11 9 8 7 7 6 5 3 5 5 4 3 4 3 6 8 7 7 8 9 9 9 9 9 9
14 14 13 14 13 12 13 13 15 15 16 15 14 12 10 6 7 7 5 4 3 4 4 4 4 3 4 5 7 6 6 7 8 9 9 9 9 9
13 13 13 14 11 9 12 13 13 12 11 11 10 7 4 3 5 5 6 6 5 4 3 4 4 4 3 4 6 7 7 7 8 9 10 11 12 11
10 11 11 13 10 8 12 13 13 12 11 11 12 11 11 10 10 9 8 7 6 4 5 5 5 5 4 3 4 5 6 7 8 9 10 11 11 8
9 8 7 8 11 10 11 12 11 10 10 10 10 11 11 10 11 11 9 8 7 5 7 6 6 5 5 5 4 4 5 6 6 6 7 7 4 3
10 9 6 3 7 10 11 10 8 8 9 8 9 9 9 10 10 10 10 9 6 5 9 9 6 6 6 6 5 5 5 5 6 6 7 7 5 6
8 7 7 6 7 9 12 11 10 10 9 9 9 9 9 9 8 8 9 8 7 6 8 8 7 7 6 6 7 7 6 5 6 7 7 7 7 7
8 8 10 10 10 8 7 10 10 9 9 9 9 8 8 8 8 8 8 8 7 6 7 8 8 9 6 6 7 8 8 7 8 7 7 7 7 7
7 7 7 6 7 7 7 8 8 9 9 9 8 8 8 8 8 8 8 8 8 8 8 6 5 5 4 6 7 8 8 8 8 8 7 7 6 7
7 8 7 6 7 7 7 7 8 8 8 8 8 8 8 8 9 8 9 9 9 9 9 8 7 6 4 2 2 8 8 8 8 9 8 8 7 7
7 8 7 6 6 6 6 7 7 7 7 7 7 8 8 8 9 9 9 9 9 9 9 9 9 9 9 7 4 3 7 9 9 8 8 8 8 8
7 7 6 6 5 5 5 6 6 6 6 7 7 7 8 8 9 9 9 10 9 9 9 9 10 9 9 8 7 6 6 9 9 9 8 6 6 9
6 6 6 5 5 4 4 4 5 5 6 7 7 8 8 8 8 9 9 10 9 9 10 10 9 8 5 6 7 7 7 4 5 7 10 9 9 9
5 5 5 5 4 4 4 5 5 5 7 7 7 7 8 8 9 9 9 9 9 9 9 8 10 9 7 8 9 10 9 7 6 9 7 3 6 9
5 5 4 5 4 4 5 5 6 6 6 7 7 7 8 7 7 8 9 9 9 9 9 9 9 8 8 8 8 9 13 11 8 8 5 6 6 8
Wind_Direction
261 254 252 260 258 258 259 262 270 276 275 267 259 273 289 278 277 250 240 207 204 203 201 201 200 201 202 205 208 209 209 210 211 210 211 213 215 219
262 268 268 264 261 257 256 256 256 264 273 278 278 283 302 299 277 271 246 197 197 196 194 194 195 197 199 201 203 204 204 205 206 206 207 210 212 214
263 258 254 260 264 262 254 252 252 252 261 267 260 269 272 281 275 265 235 209 190 184 184 183 187 192 195 196 199 199 200 202 203 204 206 207 209 211
263 263 261 256 251 255 257 253 253 254 257 264 263 262 258 267 266 256 242 207 185 165 170 170 174 184 188 189 193 194 195 196 197 199 202 204 205 206
265 263 262 260 258 254 253 254 251 245 244 252 254 248 251 251 257 242 214 182 163 147 150 152 157 167 175 180 183 184 187 191 193 195 196 197 198 200
265 263 261 259 256 256 252 251 253 254 247 247 250 242 230 227 232 227 199 169 158 153 135 131 132 136 148 160 165 168 174 179 183 186 188 188 190 192
266 262 260 260 268 268 268 259 252 247 245 240 241 239 229 215 222 216 203 161 143 149 139 139 144 146 148 154 156 158 162 165 169 174 177 179 181 184
271 267 264 252 244 238 249 260 267 260 254 251 245 238 232 224 217 218 198 182 166 165 146 136 148 142 144 142 129 144 155 159 163 166 167 169 171 173
269 267 264 261 245 244 232 230 239 246 253 260 258 252 237 219 210 210 204 204 177 159 154 134 136 124 114 99 113 131 147 155 158 159 160 162 163 165
264 262 261 264 261 257 256 245 238 231 227 232 245 251 251 237 214 214 208 183 150 158 160 139 145 130 120 110 108 119 137 148 152 153 154 153 151 148
265 263 263 262 256 245 254 256 252 245 231 229 239 250 266 216 208 208 198 188 178 169 169 143 137 124 124 120 109 110 122 135 141 145 146 144 142 138
273 267 256 254 262 238 248 251 249 244 240 215 212 220 223 208 200 215 207 200 184 170 165 150 148 144 133 128 135 140 129 122 127 135 143 151 161 154
280 275 268 230 231 234 244 254 256 262 248 235 225 219 216 211 204 207 209 208 196 180 162 155 158 163 142 139 149 153 148 147 143 136 141 149 166 183
278 279 282 250 231 230 234 245 251 252 247 239 227 223 217 210 205 203 199 203 207 184 163 164 161 166 151 149 149 153 155 156 154 149 145 140 115 91
276 290 292 276 249 234 231 232 230 231 231 230 228 224 219 212 203 194 192 191 190 181 169 176 170 165 167 162 152 157 158 161 165 157 156 162 158 155
262 260 241 240 244 254 230 213 223 227 227 228 226 223 215 205 200 193 185 179 174 168 174 180 179 172 172 162 156 162 164 161 167 166 159 158 163 166
307 281 262 244 231 226 225 222 216 216 220 226 223 218 210 205 201 192 185 183 183 172 163 164 164 157 157 161 163 165 163 160 163 160 161 157 160 164
277 265 260 250 240 230 223 220 216 216 218 219 219 213 207 202 199 192 187 190 187 177 167 161 154 143 132 108 151 165 164 160 157 164 173 163 161 164
251 258 258 254 249 240 227 221 219 214 213 215 214 210 205 201 195 191 191 192 189 178 169 167 171 173 173 169 163 191 166 156 157 167 178 172 163 158
243 256 260 254 246 240 228 222 216 206 205 210 210 208 204 198 195 193 191 191 187 175 170 174 182 190 192 170 154 160 171 162 164 166 166 153 119 105
251 251 257 257 246 232 222 217 211 205 208 210 206 204 200 197 196 195 192 185 187 179 177 180 181 173 155 131 137 143 153 148 150 161 159 155 154 161
263 258 255 251 243 230 218 214 212 205 206 210 201 196 194 197 198 196 190 184 187 185 178 165 160 164 170 171 160 150 148 144 108 93 82 100 171 179
264 261 258 249 237 224 220 216 212 209 206 206 198 193 193 195 199 196 190 187 184 179 168 160 161 170 175 171 158 152 152 152 152 153 129 40 59 93